Regional Weather Roundup
Issued by NWS

Home | Current Version | Previous Version | Graphics & Text | Print | Product List | Glossary On
Versions: 1 2 3 4 5 6 7 8 9 10 11 12 13 14 15 16 17 18 19 20 21 22 23 24 25 26 27 28 29 30 31 32 33 34 35 36 37 38 39 40 41 42 43 44 45 46 47 48 49 50
763
ASUS43 KLMK 252302
RWRKY
KENTUCKY REGIONAL WEATHER ROUNDUP
NATIONAL WEATHER SERVICE LOUISVILLE KY
700 PM EDT SAT MAR 25 2017

NOTE "FAIR" INDICATES FEW OR NO CLOUDS BELOW 12,000 FEET
WITH NO SIGNIFICANT WEATHER AND/OR OBSTRUCTIONS TO VISIBILITY.

KYZ001>023-026-027-061>063-070>075-260000-
WESTERN AND SOUTH CENTRAL KENTUCKY

CITY           SKY/WX    TMP DP  RH WIND       PRES   REMARKS
PADUCAH        PTSUNNY   66  55  67 S15G23    29.86F
HENDERSON      CLOUDY    66  52  59 S13       29.89F
OWENSBORO      CLOUDY    68  58  70 S9        29.93F
HOPKINSVILLE   CLOUDY    69  54  59 SE9       29.91F
BOWLING GREEN  PTSUNNY   67  60  78 SE8       29.97F
GLASGOW        NOT AVBL
$$

KYZ024-025-028>034-038-045-046-053-260000-
NORTH CENTRAL KENTUCKY

CITY           SKY/WX    TMP DP  RH WIND       PRES   REMARKS
LOUISVILLE/SDF CLOUDY    75  47  36 S20       29.95F
LOUISVILLE/LOU PTSUNNY   75  49  39 SE14G20   29.97F
FORT KNOX      CLOUDY    72  51  46 SE14      29.95F
$$

KYZ035>037-039>044-047>052-055>060-089>105-260000-
NORTHEAST KENTUCKY

CITY           SKY/WX    TMP DP  RH WIND       PRES   REMARKS
LEXINGTON      CLOUDY    73  49  42 S8        30.03S
COVINGTON      CLOUDY    73  51  46 S15G23    30.00S
FRANKFORT      PTSUNNY   75  48  38 S10       30.00F
$$

KYZ054-064>069-076>088-106>120-260000-
SOUTHEAST KENTUCKY

CITY           SKY/WX    TMP DP  RH WIND       PRES   REMARKS
JACKSON        CLOUDY    74  47  38 S6        30.06F
LONDON         CLOUDY    72  45  37 S9        30.06F
SOMERSET       NOT AVBL
MIDDLESBORO    CLOUDY    74  48  40 S7        30.07F
MONTICELLO     CLOUDY    72  51  47 SE10      30.04F
$$





USA.gov is the U.S. government's official web portal to all federal, state and local government web resources and services.